Year,Month,Day,Hour,Minute,Value (Times are PST for temperature in C)
2021,08,13,00,00,22.30
2021,08,13,00,01,22.30
2021,08,13,00,02,22.30
2021,08,13,00,03,22.30
2021,08,13,00,04,22.20
2021,08,13,00,05,22.20
2021,08,13,00,06,22.20
2021,08,13,00,07,22.10
2021,08,13,00,08,22.10
2021,08,13,00,09,22.10
2021,08,13,00,10,22.10
2021,08,13,00,11,22.00
2021,08,13,00,12,22.00
2021,08,13,00,13,22.00
2021,08,13,00,14,22.00
2021,08,13,00,15,21.90
2021,08,13,00,16,21.90
2021,08,13,00,17,21.90
2021,08,13,00,18,21.90
2021,08,13,00,19,21.90
2021,08,13,00,20,21.90
2021,08,13,00,21,21.90
2021,08,13,00,22,21.80
2021,08,13,00,23,21.80
2021,08,13,00,24,21.80
2021,08,13,00,25,21.80
2021,08,13,00,26,21.80
2021,08,13,00,27,21.80
2021,08,13,00,28,21.80
2021,08,13,00,29,21.80
2021,08,13,00,30,21.70
2021,08,13,00,31,21.70
2021,08,13,00,32,21.70
2021,08,13,00,33,21.70
2021,08,13,00,34,21.70
2021,08,13,00,35,21.70
2021,08,13,00,36,21.60
2021,08,13,00,37,21.60
2021,08,13,00,38,21.60
2021,08,13,00,39,21.60
2021,08,13,00,40,21.50
2021,08,13,00,41,21.50
2021,08,13,00,42,21.40
2021,08,13,00,43,21.40
2021,08,13,00,44,21.40
2021,08,13,00,45,21.30
2021,08,13,00,46,21.30
2021,08,13,00,47,21.30
2021,08,13,00,48,21.30
2021,08,13,00,49,21.30
2021,08,13,00,50,21.30
2021,08,13,00,51,21.30
2021,08,13,00,52,21.30
2021,08,13,00,53,21.30
2021,08,13,00,54,21.30
2021,08,13,00,55,21.30
2021,08,13,00,56,21.30
2021,08,13,00,57,21.30
2021,08,13,00,58,21.20
2021,08,13,00,59,21.20
2021,08,13,01,00,21.20
2021,08,13,01,01,21.20
2021,08,13,01,02,21.20
2021,08,13,01,03,21.20
2021,08,13,01,04,21.10
2021,08,13,01,05,21.10
2021,08,13,01,06,21.10
2021,08,13,01,07,21.10
2021,08,13,01,08,21.10
2021,08,13,01,09,21.00
2021,08,13,01,10,21.00
2021,08,13,01,11,21.00
2021,08,13,01,12,20.90
2021,08,13,01,13,20.90
2021,08,13,01,14,20.90
2021,08,13,01,15,20.80
2021,08,13,01,16,20.80
2021,08,13,01,17,20.80
2021,08,13,01,18,20.80
2021,08,13,01,19,20.80
2021,08,13,01,20,20.80
2021,08,13,01,21,20.80
2021,08,13,01,22,20.80
2021,08,13,01,23,20.80
2021,08,13,01,24,20.80
2021,08,13,01,25,20.80
2021,08,13,01,26,20.80
2021,08,13,01,27,20.80
2021,08,13,01,28,20.80
2021,08,13,01,29,20.80
2021,08,13,01,30,20.80
2021,08,13,01,31,20.80
2021,08,13,01,32,20.80
2021,08,13,01,33,20.80
2021,08,13,01,34,20.80
2021,08,13,01,35,20.80
2021,08,13,01,36,20.70
2021,08,13,01,37,20.70
2021,08,13,01,38,20.70
2021,08,13,01,39,20.70
2021,08,13,01,40,20.70
2021,08,13,01,41,20.70
2021,08,13,01,42,20.70
2021,08,13,01,43,20.70
2021,08,13,01,44,20.60
2021,08,13,01,45,20.60
2021,08,13,01,46,20.60
2021,08,13,01,47,20.60
2021,08,13,01,48,20.60
2021,08,13,01,49,20.60
2021,08,13,01,50,20.60
2021,08,13,01,51,20.60
2021,08,13,01,52,20.60
2021,08,13,01,53,20.60
2021,08,13,01,54,20.50
2021,08,13,01,55,20.50
2021,08,13,01,56,20.50
2021,08,13,01,57,20.50
2021,08,13,01,58,20.50
2021,08,13,01,59,20.50
2021,08,13,02,00,20.50
2021,08,13,02,01,20.50
2021,08,13,02,02,20.40
2021,08,13,02,03,20.40
2021,08,13,02,04,20.40
2021,08,13,02,05,20.40
2021,08,13,02,06,20.30
2021,08,13,02,07,20.30
2021,08,13,02,08,20.30
2021,08,13,02,09,20.30
2021,08,13,02,10,20.30
2021,08,13,02,11,20.30
2021,08,13,02,12,20.30
2021,08,13,02,13,20.30
2021,08,13,02,14,20.30
2021,08,13,02,15,20.20
2021,08,13,02,16,20.20
2021,08,13,02,17,20.20
2021,08,13,02,18,20.20
2021,08,13,02,19,20.20
2021,08,13,02,20,20.20
2021,08,13,02,21,20.10
2021,08,13,02,22,20.10
2021,08,13,02,23,20.10
2021,08,13,02,24,20.00
2021,08,13,02,25,20.00
2021,08,13,02,26,20.00
2021,08,13,02,27,20.00
2021,08,13,02,28,20.00
2021,08,13,02,29,19.90
2021,08,13,02,30,19.90
2021,08,13,02,31,19.90
2021,08,13,02,32,19.90
2021,08,13,02,33,19.80
2021,08,13,02,34,19.80
2021,08,13,02,35,19.80
2021,08,13,02,36,19.80
2021,08,13,02,37,19.80
2021,08,13,02,38,19.80
2021,08,13,02,39,19.80
2021,08,13,02,40,19.80
2021,08,13,02,41,19.70
2021,08,13,02,42,19.70
2021,08,13,02,43,19.70
2021,08,13,02,44,19.70
2021,08,13,02,45,19.70
2021,08,13,02,46,19.70
2021,08,13,02,47,19.70
2021,08,13,02,48,19.70
2021,08,13,02,49,19.70
2021,08,13,02,50,19.70
2021,08,13,02,51,19.70
2021,08,13,02,52,19.70
2021,08,13,02,53,19.70
2021,08,13,02,54,19.70
2021,08,13,02,55,19.70
2021,08,13,02,56,19.60
2021,08,13,02,57,19.60
2021,08,13,02,58,19.60
2021,08,13,02,59,19.60
2021,08,13,03,00,19.50
2021,08,13,03,01,19.50
2021,08,13,03,02,19.50
2021,08,13,03,03,19.40
2021,08,13,03,04,19.40
2021,08,13,03,05,19.40
2021,08,13,03,06,19.40
2021,08,13,03,07,19.40
2021,08,13,03,08,19.40
2021,08,13,03,09,19.40
2021,08,13,03,10,19.40
2021,08,13,03,11,19.40
2021,08,13,03,12,19.40
2021,08,13,03,13,19.40
2021,08,13,03,14,19.40
2021,08,13,03,15,19.40
2021,08,13,03,16,19.40
2021,08,13,03,17,19.40
2021,08,13,03,18,19.40
2021,08,13,03,19,19.40
2021,08,13,03,20,19.30
2021,08,13,03,21,19.30
2021,08,13,03,22,19.30
2021,08,13,03,23,19.30
2021,08,13,03,24,19.30
2021,08,13,03,25,19.30
2021,08,13,03,26,19.30
2021,08,13,03,27,19.30
2021,08,13,03,28,19.30
2021,08,13,03,29,19.30
2021,08,13,03,30,19.20
2021,08,13,03,31,19.20
2021,08,13,03,32,19.20
2021,08,13,03,33,19.20
2021,08,13,03,34,19.30
2021,08,13,03,35,19.30
2021,08,13,03,36,19.30
2021,08,13,03,37,19.30
2021,08,13,03,38,19.30
2021,08,13,03,39,19.30
2021,08,13,03,40,19.30
2021,08,13,03,41,19.30
2021,08,13,03,42,19.30
2021,08,13,03,43,19.40
2021,08,13,03,44,19.40
2021,08,13,03,45,19.40
2021,08,13,03,46,19.40
2021,08,13,03,47,19.40
2021,08,13,03,48,19.40
2021,08,13,03,49,19.40
2021,08,13,03,50,19.40
2021,08,13,03,51,19.40
2021,08,13,03,52,19.40
2021,08,13,03,53,19.40
2021,08,13,03,54,19.30
2021,08,13,03,55,19.30
2021,08,13,03,56,19.30
2021,08,13,03,57,19.30
2021,08,13,03,58,19.30
2021,08,13,03,59,19.30
2021,08,13,04,00,19.30
2021,08,13,04,01,19.30
2021,08,13,04,02,19.40
2021,08,13,04,03,19.40
2021,08,13,04,04,19.40
2021,08,13,04,05,19.40
2021,08,13,04,06,19.40
2021,08,13,04,07,19.40
2021,08,13,04,08,19.40
2021,08,13,04,09,19.40
2021,08,13,04,10,19.40
2021,08,13,04,11,19.40
2021,08,13,04,12,19.50
2021,08,13,04,13,19.50
2021,08,13,04,14,19.50
2021,08,13,04,15,19.50
2021,08,13,04,16,19.50
2021,08,13,04,17,19.50
2021,08,13,04,18,19.50
2021,08,13,04,19,19.60
2021,08,13,04,20,19.60
2021,08,13,04,21,19.60
2021,08,13,04,22,19.60
2021,08,13,04,23,19.60
2021,08,13,04,24,19.60
2021,08,13,04,25,19.60
2021,08,13,04,26,19.70
2021,08,13,04,27,19.70
2021,08,13,04,28,19.70
2021,08,13,04,29,19.70
2021,08,13,04,30,19.70
2021,08,13,04,31,19.70
2021,08,13,04,32,19.70
2021,08,13,04,33,19.70
2021,08,13,04,34,19.60
2021,08,13,04,35,19.60
2021,08,13,04,36,19.50
2021,08,13,04,37,19.40
2021,08,13,04,38,19.30
2021,08,13,04,39,19.30
2021,08,13,04,40,19.20
2021,08,13,04,41,19.20
2021,08,13,04,42,19.10
2021,08,13,04,43,19.10
2021,08,13,04,44,19.10
2021,08,13,04,45,19.10
2021,08,13,04,46,19.10
2021,08,13,04,47,19.10
2021,08,13,04,48,19.10
2021,08,13,04,49,19.10
2021,08,13,04,50,19.10
2021,08,13,04,51,19.10
2021,08,13,04,52,19.10
2021,08,13,04,53,19.10
2021,08,13,04,54,19.10
2021,08,13,04,55,19.10
2021,08,13,04,56,19.10
2021,08,13,04,57,19.10
2021,08,13,04,58,19.10
2021,08,13,04,59,19.10
2021,08,13,05,00,19.00
2021,08,13,05,01,19.00
2021,08,13,05,02,18.90
2021,08,13,05,03,18.90
2021,08,13,05,04,18.90
2021,08,13,05,05,18.90
2021,08,13,05,06,18.90
2021,08,13,05,07,18.90
2021,08,13,05,08,18.90
2021,08,13,05,09,18.90
2021,08,13,05,10,18.90
2021,08,13,05,11,18.90
2021,08,13,05,12,18.80
2021,08,13,05,13,18.80
2021,08,13,05,14,18.80
2021,08,13,05,15,18.80
2021,08,13,05,16,18.80
2021,08,13,05,17,18.80
2021,08,13,05,18,18.80
2021,08,13,05,19,18.80
2021,08,13,05,20,18.80
2021,08,13,05,21,18.80
2021,08,13,05,22,18.80
2021,08,13,05,23,18.70
2021,08,13,05,24,18.70
2021,08,13,05,25,18.70
2021,08,13,05,26,18.70
2021,08,13,05,27,18.70
2021,08,13,05,28,18.70
2021,08,13,05,29,18.70
2021,08,13,05,30,18.70
2021,08,13,05,31,18.70
2021,08,13,05,32,18.60
2021,08,13,05,33,18.60
2021,08,13,05,34,18.60
2021,08,13,05,35,18.60
2021,08,13,05,36,18.60
2021,08,13,05,37,18.60
2021,08,13,05,38,18.60
2021,08,13,05,39,18.60
2021,08,13,05,40,18.50
2021,08,13,05,41,18.50
2021,08,13,05,42,18.50
2021,08,13,05,43,18.40
2021,08,13,05,44,18.50
2021,08,13,05,45,18.40
2021,08,13,05,46,18.40
2021,08,13,05,47,18.40
2021,08,13,05,48,18.40
2021,08,13,05,49,18.40
2021,08,13,05,50,18.40
2021,08,13,05,51,18.50
2021,08,13,05,52,18.50
2021,08,13,05,53,18.50
2021,08,13,05,54,18.50
2021,08,13,05,55,18.60
2021,08,13,05,56,18.60
2021,08,13,05,57,18.60
2021,08,13,05,58,18.60
2021,08,13,05,59,18.60
2021,08,13,06,00,18.60
2021,08,13,06,01,18.60
2021,08,13,06,02,18.60
2021,08,13,06,03,18.60
2021,08,13,06,04,18.60
2021,08,13,06,05,18.60
2021,08,13,06,06,18.60
2021,08,13,06,07,18.60
2021,08,13,06,08,18.50
2021,08,13,06,09,18.50
2021,08,13,06,10,18.50
2021,08,13,06,11,18.50
2021,08,13,06,12,18.40
2021,08,13,06,13,18.40
2021,08,13,06,14,18.40
2021,08,13,06,15,18.40
2021,08,13,06,16,18.40
2021,08,13,06,17,18.40
2021,08,13,06,18,18.40
2021,08,13,06,19,18.40
2021,08,13,06,20,18.30
2021,08,13,06,21,18.30
2021,08,13,06,22,18.30
2021,08,13,06,23,18.30
2021,08,13,06,24,18.30
2021,08,13,06,25,18.30
2021,08,13,06,26,18.30
2021,08,13,06,27,18.30
2021,08,13,06,28,18.30
2021,08,13,06,29,18.30
2021,08,13,06,30,18.30
2021,08,13,06,31,18.30
2021,08,13,06,32,18.30
2021,08,13,06,33,18.30
2021,08,13,06,34,18.30
2021,08,13,06,35,18.30
2021,08,13,06,36,18.30
2021,08,13,06,37,18.30
2021,08,13,06,38,18.30
2021,08,13,06,39,18.30
2021,08,13,06,40,18.20
2021,08,13,06,41,18.20
2021,08,13,06,42,18.20
2021,08,13,06,43,18.20
2021,08,13,06,44,18.30
2021,08,13,06,45,18.30
2021,08,13,06,46,18.30
2021,08,13,06,47,18.30
2021,08,13,06,48,18.30
2021,08,13,06,49,18.30
2021,08,13,06,50,18.30
2021,08,13,06,51,18.30
2021,08,13,06,52,18.30
2021,08,13,06,53,18.30
2021,08,13,06,54,18.30
2021,08,13,06,55,18.30
2021,08,13,06,56,18.40
2021,08,13,06,57,18.40
2021,08,13,06,58,18.40
2021,08,13,06,59,18.40
2021,08,13,07,00,18.40
2021,08,13,07,01,18.40
2021,08,13,07,02,18.40
2021,08,13,07,03,18.40
2021,08,13,07,04,18.40
2021,08,13,07,05,18.40
2021,08,13,07,06,18.40
2021,08,13,07,07,18.40
2021,08,13,07,08,18.40
2021,08,13,07,09,18.40
2021,08,13,07,10,18.40
2021,08,13,07,11,18.40
2021,08,13,07,12,18.40
2021,08,13,07,13,18.40
2021,08,13,07,14,18.40
2021,08,13,07,15,18.40
2021,08,13,07,16,18.40
2021,08,13,07,17,18.40
2021,08,13,07,18,18.40
2021,08,13,07,19,18.50
2021,08,13,07,20,18.50
2021,08,13,07,21,18.50
2021,08,13,07,22,18.60
2021,08,13,07,23,18.60
2021,08,13,07,24,18.60
2021,08,13,07,25,18.60
2021,08,13,07,26,18.60
2021,08,13,07,27,18.60
2021,08,13,07,28,18.60
2021,08,13,07,29,18.70
2021,08,13,07,30,18.70
2021,08,13,07,31,18.70
2021,08,13,07,32,18.70
2021,08,13,07,33,18.80
2021,08,13,07,34,18.80
2021,08,13,07,35,18.80
2021,08,13,07,36,18.90
2021,08,13,07,37,18.90
2021,08,13,07,38,19.00
2021,08,13,07,39,19.00
2021,08,13,07,40,19.10
2021,08,13,07,41,19.10
2021,08,13,07,42,19.10
2021,08,13,07,43,19.20
2021,08,13,07,44,19.20
2021,08,13,07,45,19.30
2021,08,13,07,46,19.30
2021,08,13,07,47,19.30
2021,08,13,07,48,19.40
2021,08,13,07,49,19.40
2021,08,13,07,50,19.40
2021,08,13,07,51,19.40
2021,08,13,07,52,19.50
2021,08,13,07,53,19.50
2021,08,13,07,54,19.60
2021,08,13,07,55,19.60
2021,08,13,07,56,19.60
2021,08,13,07,57,19.70
2021,08,13,07,58,19.70
2021,08,13,07,59,19.80
2021,08,13,08,00,19.80
2021,08,13,08,01,19.90
2021,08,13,08,02,19.90
2021,08,13,08,03,19.90
2021,08,13,08,04,20.00
2021,08,13,08,05,20.10
2021,08,13,08,06,20.10
2021,08,13,08,07,20.10
2021,08,13,08,08,20.20
2021,08,13,08,09,20.30
2021,08,13,08,10,20.30
2021,08,13,08,11,20.40
2021,08,13,08,12,20.50
2021,08,13,08,13,20.60
2021,08,13,08,14,20.70
2021,08,13,08,15,20.80
2021,08,13,08,16,20.80
2021,08,13,08,17,21.00
2021,08,13,08,18,21.00
2021,08,13,08,19,21.10
2021,08,13,08,20,21.20
2021,08,13,08,21,21.30
2021,08,13,08,22,21.40
2021,08,13,08,23,21.40
2021,08,13,08,24,21.40
2021,08,13,08,25,21.50
2021,08,13,08,26,21.60
2021,08,13,08,27,21.70
2021,08,13,08,28,21.70
2021,08,13,08,29,21.80
2021,08,13,08,30,21.90
2021,08,13,08,31,21.90
2021,08,13,08,32,22.00
2021,08,13,08,33,22.10
2021,08,13,08,34,22.20
2021,08,13,08,35,22.30
2021,08,13,08,36,22.30
2021,08,13,08,37,22.40
2021,08,13,08,38,22.50
2021,08,13,08,39,22.50
2021,08,13,08,40,22.60
2021,08,13,08,41,22.70
2021,08,13,08,42,22.80
2021,08,13,08,43,22.90
2021,08,13,08,44,23.00
2021,08,13,08,45,23.10
2021,08,13,08,46,23.20
2021,08,13,08,47,23.30
2021,08,13,08,48,23.40
2021,08,13,08,49,23.40
2021,08,13,08,50,23.50
2021,08,13,08,51,23.60
2021,08,13,08,52,23.70
2021,08,13,08,53,23.70
2021,08,13,08,54,23.80
2021,08,13,08,55,23.90
2021,08,13,08,56,24.00
2021,08,13,08,57,24.10
2021,08,13,08,58,24.20
2021,08,13,08,59,24.30
2021,08,13,09,00,24.40
2021,08,13,09,01,24.50
2021,08,13,09,02,24.60
2021,08,13,09,03,24.70
2021,08,13,09,04,24.80
2021,08,13,09,05,24.90
2021,08,13,09,06,25.00
2021,08,13,09,07,25.10
2021,08,13,09,08,25.20
2021,08,13,09,09,25.30
2021,08,13,09,10,25.40
2021,08,13,09,11,25.50
2021,08,13,09,12,25.60
2021,08,13,09,13,25.70
2021,08,13,09,14,25.70
2021,08,13,09,15,25.80
2021,08,13,09,16,25.90
2021,08,13,09,17,26.00
2021,08,13,09,18,26.10
2021,08,13,09,19,26.10
2021,08,13,09,20,26.20
2021,08,13,09,21,26.30
2021,08,13,09,22,26.40
2021,08,13,09,23,26.50
2021,08,13,09,24,26.60
2021,08,13,09,25,26.70
2021,08,13,09,26,26.80
2021,08,13,09,27,26.90
2021,08,13,09,28,27.00
2021,08,13,09,29,27.10
2021,08,13,09,30,27.20
2021,08,13,09,31,27.20
2021,08,13,09,32,27.30
2021,08,13,09,33,27.30
2021,08,13,09,34,27.40
2021,08,13,09,35,27.40
2021,08,13,09,36,27.50
2021,08,13,09,37,27.50
2021,08,13,09,38,27.50
2021,08,13,09,39,27.60
2021,08,13,09,40,27.70
2021,08,13,09,41,27.70
2021,08,13,09,42,27.80
2021,08,13,09,43,27.80
2021,08,13,09,44,27.90
2021,08,13,09,45,28.00
2021,08,13,09,46,28.00
2021,08,13,09,47,28.10
2021,08,13,09,48,28.10
2021,08,13,09,49,28.20
2021,08,13,09,50,28.20
2021,08,13,09,51,28.30
2021,08,13,09,52,28.30
2021,08,13,09,53,28.30
2021,08,13,09,54,28.30
2021,08,13,09,55,28.20
2021,08,13,09,56,28.20
2021,08,13,09,57,28.20
2021,08,13,09,58,28.10
2021,08,13,09,59,28.20
2021,08,13,10,00,28.20
2021,08,13,10,01,28.20
2021,08,13,10,02,28.20
2021,08,13,10,03,28.20
2021,08,13,10,04,28.20
2021,08,13,10,05,28.30
2021,08,13,10,06,28.30
2021,08,13,10,07,28.40
2021,08,13,10,08,28.40
2021,08,13,10,09,28.50
2021,08,13,10,10,28.40
2021,08,13,10,11,28.40
2021,08,13,10,12,28.50
2021,08,13,10,13,28.50
2021,08,13,10,14,28.50
2021,08,13,10,15,28.50
2021,08,13,10,16,28.60
2021,08,13,10,17,28.60
2021,08,13,10,18,28.60
2021,08,13,10,19,28.60
2021,08,13,10,20,28.60
2021,08,13,10,21,28.70
2021,08,13,10,22,28.60
2021,08,13,10,23,28.60
2021,08,13,10,24,28.60
2021,08,13,10,25,28.60
2021,08,13,10,26,28.70
2021,08,13,10,27,28.60
2021,08,13,10,28,28.60
2021,08,13,10,29,28.50
2021,08,13,10,30,28.50
2021,08,13,10,31,28.40
2021,08,13,10,32,28.40
2021,08,13,10,33,28.40
2021,08,13,10,34,28.40
2021,08,13,10,35,28.30
2021,08,13,10,36,28.40
2021,08,13,10,37,28.40
2021,08,13,10,38,28.50
2021,08,13,10,39,28.70
2021,08,13,10,40,28.80
2021,08,13,10,41,28.80
2021,08,13,10,42,28.80
2021,08,13,10,43,28.90
2021,08,13,10,44,28.90
2021,08,13,10,45,28.90
2021,08,13,10,46,29.00
2021,08,13,10,47,29.00
2021,08,13,10,48,29.10
2021,08,13,10,49,29.20
2021,08,13,10,50,29.20
2021,08,13,10,51,29.30
2021,08,13,10,52,29.30
2021,08,13,10,53,29.30
2021,08,13,10,54,29.30
2021,08,13,10,55,29.30
2021,08,13,10,56,29.40
2021,08,13,10,57,29.40
2021,08,13,10,58,29.50
2021,08,13,10,59,29.50
2021,08,13,11,00,29.50
2021,08,13,11,01,29.40
2021,08,13,11,02,29.50
2021,08,13,11,03,29.50
2021,08,13,11,04,29.60
2021,08,13,11,05,29.70
2021,08,13,11,06,29.70
2021,08,13,11,07,29.70
2021,08,13,11,08,29.60
2021,08,13,11,09,29.50
2021,08,13,11,10,29.50
2021,08,13,11,11,29.40
2021,08,13,11,12,29.40
2021,08,13,11,13,29.40
2021,08,13,11,14,29.40
2021,08,13,11,15,29.40
2021,08,13,11,16,29.40
2021,08,13,11,17,29.30
2021,08,13,11,18,29.20
2021,08,13,11,19,29.20
2021,08,13,11,20,29.10
2021,08,13,11,21,29.10
2021,08,13,11,22,29.10
2021,08,13,11,23,29.00
2021,08,13,11,24,29.00
2021,08,13,11,25,29.00
2021,08,13,11,26,29.00
2021,08,13,11,27,29.10
2021,08,13,11,28,29.20
2021,08,13,11,29,29.10
2021,08,13,11,30,29.10
2021,08,13,11,31,29.20
2021,08,13,11,32,29.30
2021,08,13,11,33,29.40
2021,08,13,11,34,29.50
2021,08,13,11,35,29.50
2021,08,13,11,36,29.60
2021,08,13,11,37,29.70
2021,08,13,11,38,29.70
2021,08,13,11,39,29.80
2021,08,13,11,40,29.80
2021,08,13,11,41,29.80
2021,08,13,11,42,29.90
2021,08,13,11,43,29.90
2021,08,13,11,44,29.90
2021,08,13,11,45,29.90
2021,08,13,11,46,30.00
2021,08,13,11,47,30.10
2021,08,13,11,48,30.20
2021,08,13,11,49,30.20
2021,08,13,11,50,30.30
2021,08,13,11,51,30.30
2021,08,13,11,52,30.30
2021,08,13,11,53,30.20
2021,08,13,11,54,30.20
2021,08,13,11,55,30.20
2021,08,13,11,56,30.00
2021,08,13,11,57,29.90
2021,08,13,11,58,30.00
2021,08,13,11,59,30.00
2021,08,13,12,00,30.10
2021,08,13,12,01,30.30
2021,08,13,12,02,30.40
2021,08,13,12,03,30.50
2021,08,13,12,04,30.60
2021,08,13,12,05,30.60
2021,08,13,12,06,30.60
2021,08,13,12,07,30.60
2021,08,13,12,08,30.60
2021,08,13,12,09,30.70
2021,08,13,12,10,30.70
2021,08,13,12,11,30.80
2021,08,13,12,12,30.80
2021,08,13,12,13,30.80
2021,08,13,12,14,30.60
2021,08,13,12,15,30.40
2021,08,13,12,16,30.30
2021,08,13,12,17,30.30
2021,08,13,12,18,30.20
2021,08,13,12,19,30.20
2021,08,13,12,20,30.30
2021,08,13,12,21,30.30
2021,08,13,12,22,30.30
2021,08,13,12,23,30.40
2021,08,13,12,24,30.40
2021,08,13,12,25,30.50
2021,08,13,12,26,30.60
2021,08,13,12,27,30.60
2021,08,13,12,28,30.70
2021,08,13,12,29,30.90
2021,08,13,12,30,31.00
2021,08,13,12,31,31.10
2021,08,13,12,32,31.30
2021,08,13,12,33,31.40
2021,08,13,12,34,31.60
2021,08,13,12,35,31.50
2021,08,13,12,36,31.50
2021,08,13,12,37,31.60
2021,08,13,12,38,31.70
2021,08,13,12,39,31.80
2021,08,13,12,40,31.90
2021,08,13,12,41,32.00
2021,08,13,12,42,31.90
2021,08,13,12,43,31.80
2021,08,13,12,44,31.50
2021,08,13,12,45,31.30
2021,08,13,12,46,31.10
2021,08,13,12,47,31.10
2021,08,13,12,48,31.10
2021,08,13,12,49,31.10
2021,08,13,12,50,31.00
2021,08,13,12,51,31.10
2021,08,13,12,52,31.10
2021,08,13,12,53,31.10
2021,08,13,12,54,31.20
2021,08,13,12,55,31.30
2021,08,13,12,56,31.20
2021,08,13,12,57,31.10
2021,08,13,12,58,30.90
2021,08,13,12,59,30.60
2021,08,13,13,00,30.50
2021,08,13,13,01,30.40
2021,08,13,13,02,30.40
2021,08,13,13,03,30.40
2021,08,13,13,04,30.40
2021,08,13,13,05,30.50
2021,08,13,13,06,30.60
2021,08,13,13,07,30.70
2021,08,13,13,08,30.80
2021,08,13,13,09,30.90
2021,08,13,13,10,31.00
2021,08,13,13,11,31.00
2021,08,13,13,12,31.10
2021,08,13,13,13,31.20
2021,08,13,13,14,31.20
2021,08,13,13,15,31.30
2021,08,13,13,16,31.30
2021,08,13,13,17,31.30
2021,08,13,13,18,31.30
2021,08,13,13,19,31.40
2021,08,13,13,20,31.40
2021,08,13,13,21,31.60
2021,08,13,13,22,31.70
2021,08,13,13,23,32.00
2021,08,13,13,24,32.20
2021,08,13,13,25,32.30
2021,08,13,13,26,32.30
2021,08,13,13,27,32.40
2021,08,13,13,28,32.40
2021,08,13,13,29,32.30
2021,08,13,13,30,32.00
2021,08,13,13,31,31.90
2021,08,13,13,32,31.80
2021,08,13,13,33,31.70
2021,08,13,13,34,31.50
2021,08,13,13,35,31.30
2021,08,13,13,36,31.20
2021,08,13,13,37,31.10
2021,08,13,13,38,31.00
2021,08,13,13,39,31.00
2021,08,13,13,40,30.90
2021,08,13,13,41,30.90
2021,08,13,13,42,31.00
2021,08,13,13,43,30.90
2021,08,13,13,44,30.90
2021,08,13,13,45,30.90
2021,08,13,13,46,30.90
2021,08,13,13,47,30.90
2021,08,13,13,48,30.90
2021,08,13,13,49,31.00
2021,08,13,13,50,31.10
2021,08,13,13,51,31.10
2021,08,13,13,52,31.10
2021,08,13,13,53,31.20
2021,08,13,13,54,31.20
2021,08,13,13,55,31.20
2021,08,13,13,56,31.30
2021,08,13,13,57,31.40
2021,08,13,13,58,31.50
2021,08,13,13,59,31.60
2021,08,13,14,00,31.60
2021,08,13,14,01,31.60
2021,08,13,14,02,31.60
2021,08,13,14,03,31.70
2021,08,13,14,04,31.70
2021,08,13,14,05,31.70
2021,08,13,14,06,31.70
2021,08,13,14,07,31.80
2021,08,13,14,08,31.90
2021,08,13,14,09,32.00
2021,08,13,14,10,32.20
2021,08,13,14,11,32.30
2021,08,13,14,12,32.30
2021,08,13,14,13,32.30
2021,08,13,14,14,32.30
2021,08,13,14,15,32.40
2021,08,13,14,16,32.50
2021,08,13,14,17,32.50
2021,08,13,14,18,32.50
2021,08,13,14,19,32.30
2021,08,13,14,20,32.20
2021,08,13,14,21,32.00
2021,08,13,14,22,31.90
2021,08,13,14,23,31.90
2021,08,13,14,24,31.90
2021,08,13,14,25,32.00
2021,08,13,14,26,32.00
2021,08,13,14,27,31.90
2021,08,13,14,28,32.00
2021,08,13,14,29,32.10
2021,08,13,14,30,32.20
2021,08,13,14,31,32.20
2021,08,13,14,32,32.10
2021,08,13,14,33,32.00
2021,08,13,14,34,31.90
2021,08,13,14,35,31.80
2021,08,13,14,36,31.80
2021,08,13,14,37,31.90
2021,08,13,14,38,32.00
2021,08,13,14,39,32.00
2021,08,13,14,40,32.00
2021,08,13,14,41,32.00
2021,08,13,14,42,32.10
2021,08,13,14,43,32.20
2021,08,13,14,44,32.20
2021,08,13,14,45,32.30
2021,08,13,14,46,32.20
2021,08,13,14,47,32.20
2021,08,13,14,48,32.10
2021,08,13,14,49,32.10
2021,08,13,14,50,32.10
2021,08,13,14,51,32.20
2021,08,13,14,52,32.40
2021,08,13,14,53,32.50
2021,08,13,14,54,32.70
2021,08,13,14,55,32.70
2021,08,13,14,56,32.50
2021,08,13,14,57,32.50
2021,08,13,14,58,32.50
2021,08,13,14,59,32.60
2021,08,13,15,00,32.40
2021,08,13,15,01,32.10
2021,08,13,15,02,32.00
2021,08,13,15,03,31.90
2021,08,13,15,04,31.80
2021,08,13,15,05,31.70
2021,08,13,15,06,31.70
2021,08,13,15,07,31.70
2021,08,13,15,08,31.70
2021,08,13,15,09,31.60
2021,08,13,15,10,31.60
2021,08,13,15,11,31.60
2021,08,13,15,12,31.70
2021,08,13,15,13,31.70
2021,08,13,15,14,31.60
2021,08,13,15,15,31.50
2021,08,13,15,16,31.50
2021,08,13,15,17,31.50
2021,08,13,15,18,31.50
2021,08,13,15,19,31.50
2021,08,13,15,20,31.50
2021,08,13,15,21,31.50
2021,08,13,15,22,31.50
2021,08,13,15,23,31.50
2021,08,13,15,24,31.60
2021,08,13,15,25,31.70
2021,08,13,15,26,31.90
2021,08,13,15,27,32.00
2021,08,13,15,28,32.10
2021,08,13,15,29,32.20
2021,08,13,15,30,32.20
2021,08,13,15,31,32.10
2021,08,13,15,32,32.10
2021,08,13,15,33,32.00
2021,08,13,15,34,31.90
2021,08,13,15,35,31.80
2021,08,13,15,36,31.80
2021,08,13,15,37,31.80
2021,08,13,15,38,31.80
2021,08,13,15,39,31.80
2021,08,13,15,40,31.80
2021,08,13,15,41,31.80
2021,08,13,15,42,31.80
2021,08,13,15,43,31.90
2021,08,13,15,44,31.90
2021,08,13,15,45,32.10
2021,08,13,15,46,32.20
2021,08,13,15,47,32.30
2021,08,13,15,48,32.40
2021,08,13,15,49,32.40
2021,08,13,15,50,32.40
2021,08,13,15,51,32.40
2021,08,13,15,52,32.40
2021,08,13,15,53,32.40
2021,08,13,15,54,32.30
2021,08,13,15,55,32.30
2021,08,13,15,56,32.40
2021,08,13,15,57,32.50
2021,08,13,15,58,32.60
2021,08,13,15,59,32.80
2021,08,13,16,00,32.80
2021,08,13,16,01,32.90
2021,08,13,16,02,33.00
2021,08,13,16,03,33.10
2021,08,13,16,04,33.20
2021,08,13,16,05,33.30
2021,08,13,16,06,33.40
2021,08,13,16,07,33.50
2021,08,13,16,08,33.60
2021,08,13,16,09,33.60
2021,08,13,16,10,33.70
2021,08,13,16,11,33.60
2021,08,13,16,12,33.60
2021,08,13,16,13,33.70
2021,08,13,16,14,33.80
2021,08,13,16,15,33.80
2021,08,13,16,16,33.80
2021,08,13,16,17,33.80
2021,08,13,16,18,33.80
2021,08,13,16,19,33.70
2021,08,13,16,20,33.70
2021,08,13,16,21,33.60
2021,08,13,16,22,33.60
2021,08,13,16,23,33.60
2021,08,13,16,24,33.60
2021,08,13,16,25,33.60
2021,08,13,16,26,33.50
2021,08,13,16,27,33.50
2021,08,13,16,28,33.40
2021,08,13,16,29,33.30
2021,08,13,16,30,33.30
2021,08,13,16,31,33.20
2021,08,13,16,32,33.20
2021,08,13,16,33,33.20
2021,08,13,16,34,33.20
2021,08,13,16,35,33.00
2021,08,13,16,36,32.80
2021,08,13,16,37,32.60
2021,08,13,16,38,32.60
2021,08,13,16,39,32.60
2021,08,13,16,40,32.60
2021,08,13,16,41,32.50
2021,08,13,16,42,32.50
2021,08,13,16,43,32.50
2021,08,13,16,44,32.50
2021,08,13,16,45,32.50
2021,08,13,16,46,32.60
2021,08,13,16,47,32.60
2021,08,13,16,48,32.70
2021,08,13,16,49,32.80
2021,08,13,16,50,32.80
2021,08,13,16,51,32.80
2021,08,13,16,52,32.90
2021,08,13,16,53,33.00
2021,08,13,16,54,33.10
2021,08,13,16,55,33.20
2021,08,13,16,56,33.20
2021,08,13,16,57,33.20
2021,08,13,16,58,33.30
2021,08,13,16,59,33.30
2021,08,13,17,00,33.40
2021,08,13,17,01,33.40
2021,08,13,17,02,33.50
2021,08,13,17,03,33.50
2021,08,13,17,04,33.60
2021,08,13,17,05,33.70
2021,08,13,17,06,33.70
2021,08,13,17,07,33.70
2021,08,13,17,08,33.70
2021,08,13,17,09,33.50
2021,08,13,17,10,33.50
2021,08,13,17,11,33.50
2021,08,13,17,12,33.50
2021,08,13,17,13,33.50
2021,08,13,17,14,33.40
2021,08,13,17,15,33.40
2021,08,13,17,16,33.40
2021,08,13,17,17,33.50
2021,08,13,17,18,33.50
2021,08,13,17,19,33.60